This demonstration page uses our WeatherBlox Daily Observations layout. Learn more.

Left ArrowRight Arrow

38.20091, -84.87328

Hourly Observations for March 4, 2022

Temp ( °F °C ) Dew Point ( °F °C ) Humidity (%) Winds ( mph kmh ) Pressure ( in mb ) Visibility ( mi km ) Precip ( " mm )
12:53 am 00:53 Clear 37 2.8 22 -5.6 54 54 NE 8 13 30.35 1028 10 16 0.00 0.00
1:53 am 01:53 Clear 36 2.2 21 -6.1 55 55 ENE 8 13 30.35 1028 10 16 0.00 0.00
2:53 am 02:53 Clear 34 1.1 21 -6.1 59 59 ENE 7 11 30.35 1028 10 16 0.00 0.00
3:53 am 03:53 Clear 35 1.7 20 -6.7 54 54 NE 6 9 30.34 1028 10 16 0.00 0.00
4:53 am 04:53 Clear 34 1.1 21 -6.1 59 59 NE 6 9 30.36 1028 10 16 0.00 0.00
5:53 am 05:53 Clear 32 0 21 -6.1 64 64 ENE 7 11 30.36 1028 10 16 0.00 0.00
6:53 am 06:53 Clear 31 -0.6 21 -6.1 67 67 ENE 6 9 30.37 1028 10 16 0.00 0.00
7:53 am 07:53 Sunny 34 1.1 21 -6.1 59 59 ENE 6 9 30.39 1029 10 16 0.00 0.00
8:53 am 08:53 Sunny 37 2.8 21 -6.1 52 52 E 12 19 30.39 1029 10 16 0.00 0.00
9:53 am 09:53 Sunny 42 5.6 23 -5 47 47 E 7 11 30.40 1030 10 16 0.00 0.00
10:53 am 10:53 Sunny 46 7.8 25 -3.9 44 44 NE 7 11 30.39 1029 10 16 0.00 0.00
11:53 am 11:53 Sunny 50 10 28 -2.2 43 43 ENE 7 11 30.38 1029 10 16 0.00 0.00
12:53 pm 12:53 Sunny 54 12.2 30 -1.1 40 40 VRB 6 9 30.35 1028 10 16 0.00 0.00
1:53 pm 13:53 Sunny 58 14.4 30 -1.1 35 35 VRB 6 9 30.31 1026 10 16 0.00 0.00
2:53 pm 14:53 Sunny 60 15.6 30 -1.1 32 32 E 8 13 30.28 1025 10 16 0.00 0.00
3:53 pm 15:53 Sunny 60 15.6 31 -0.6 33 33 ENE 6 9 30.27 1025 10 16 0.00 0.00
4:53 pm 16:53 Sunny 60 15.6 31 -0.6 33 33 E 8 13 30.26 1025 10 16 0.00 0.00
5:53 pm 17:53 Sunny 58 14.4 32 0 38 38 ENE 7 11 30.26 1025 10 16 0.00 0.00
6:53 pm 18:53 Clear 55 12.8 30 -1.1 38 38 ENE 9 15 30.25 1024 10 16 0.00 0.00
7:53 pm 19:53 Clear 54 12.2 28 -2.2 37 37 ENE 9 15 30.24 1024 10 16 0.00 0.00
8:53 pm 20:53 Clear 51 10.6 27 -2.8 39 39 ENE 5 7 30.23 1024 10 16 0.00 0.00
9:53 pm 21:53 Clear 51 10.6 27 -2.8 39 39 E 7 11 30.21 1023 10 16 0.00 0.00
10:53 pm 22:53 Clear 52 11.1 28 -2.2 40 40 E 7 11 30.21 1023 10 16 0.00 0.00
11:53 pm 23:53 Clear 50 10 29 -1.7 44 44 E 7 11 30.18 1022 10 16 0.00 0.00

Powered by AerisWeather